This demonstration page uses our WeatherBlox Daily Observations layout. Learn more.

Left ArrowRight Arrow

Hourly Observations for July 10, 2015

Temp ( °F °C ) Dew Point ( °F °C ) Humidity (%) Winds ( mph kmh ) Pressure ( in mb ) Visibility ( mi km ) Precip ( " mm )
12:51 am 00:51 Partly Cloudy 77 25 61 16.1 58 58 E 9 15 29.92 1013 10 16.0934 N/A
1:51 am 01:51 Mostly Cloudy 77 25 61 16.1 58 58 E 8 13 29.78 1009 10 16.0934 N/A
2:51 am 02:51 Mostly Cloudy 76 24.4 61 16.1 60 60 E 7 11 29.79 1009 10 16.0934 N/A
3:51 am 03:51 Clear 75 23.9 61 16.1 62 62 ESE 5 7 29.79 1009 10 16.0934 N/A
4:51 am 04:51 Clear 73 22.8 61 16.1 66 66 SE 3 6 29.81 1009 10 16.0934 N/A
5:51 am 05:51 Mostly Sunny 74 23.3 61 16.1 64 64 ESE 7 11 29.82 1010 10 16.0934 N/A
6:51 am 06:51 Sunny 77 25 62 16.7 60 60 ESE 6 9 29.85 1011 10 16.0934 N/A
7:51 am 07:51 Sunny 81 27.2 61 16.1 51 51 E 15 24 29.85 1011 10 16.0934 N/A
8:51 am 08:51 Sunny 83 28.3 61 16.1 48 48 ENE 12 19 29.85 1011 10 16.0934 N/A
9:51 am 09:51 Sunny 86 30 61 16.1 43 43 E 8 13 29.83 1010 10 16.0934 N/A
10:07 am 10:07 Partly Cloudy with Nearby Thunderstorms 86 30 61 16.1 43 43 E 12 19 29.77 1008 10 16.0934 N/A
10:22 am 10:22 Mostly Cloudy with Light Rain 82 27.8 63 17.2 53 53 VRB 3 6 29.77 1008 10 16.0934 N/A
10:29 am 10:29 Mostly Cloudy with Thunderstorms 83 28.3 62 16.7 49 49 VRB 5 7 29.77 1008 10 16.0934 N/A
10:51 am 10:51 Cloudy with Heavy Thunderstorms 72 22.2 67 19.4 84 84 NNW 23 37 29.85 1011 4 6.43736 0.01 0.254
10:54 am 10:54 Cloudy with Heavy Thunderstorms 87 30.6 73 22.8 63 63 NNW 25 41 30.06 1018 1.75 2.816345 0.02 0.508
11:02 am 11:02 Cloudy with Heavy Thunderstorms 69 20.6 64 17.8 84 84 N 20 31 29.85 1011 0.25 0.402335 0.26 6.604
11:09 am 11:09 Cloudy with Light Thunderstorms 72 22.2 62 16.7 71 71 VRB 3 6 29.88 1012 2.5 4.02335 0.28 7.112
11:15 am 11:15 Cloudy with Heavy Thunderstorms 71 21.7 65 18.3 81 81 NE 7 11 29.83 1010 1.75 2.816345 0.33 8.382
11:22 am 11:22 Mostly Cloudy with Light Thunderstorms 38 3.3 36 2.2 93 93 NE 8 13 29.83 1010 3 4.82802 0.36 9.144
11:30 am 11:30 Partly Cloudy with Thunderstorms 75 24 68 20 78 78 NE 15 24 29.83 1010 10 16.0934 N/A
11:42 am 11:42 Partly Cloudy with Nearby Thunderstorms 79 26.1 67 19.4 67 67 NE 10 17 29.78 1008 10 16.0934 0.36 9.144
11:49 am 11:49 Sunny 81 27 66 19 62 62 NE 12 19 29.8 1009 10 16.0934 0.36 9.144
11:51 am 11:51 Sunny 81 27.2 67 19.4 62 62 NE 12 19 29.83 1010 10 16.0934 0.36 9.144
12:51 pm 12:51 Mostly Cloudy with Light Thunderstorms 79 26.1 66 18.9 65 65 SE 12 19 29.85 1011 9 14.48406 N/A
1:00 pm 13:00 Mostly Cloudy with Light Thunderstorms 78 25.6 74 23.3 87 87 E 15 24 29.95 1014 10 16.0934 N/A
1:19 pm 13:19 Partly Cloudy with Nearby Thunderstorms 79 26.1 67 19.4 67 67 ENE 16 26 29.77 1008 10 16.0934 N/A
1:28 pm 13:28 Sunny 83 28.3 65 18.3 55 55 ENE 12 19 29.74 1007 10 16.0934 N/A
1:51 pm 13:51 Sunny 84 28.9 66 18.9 55 55 E 14 22 29.79 1009 10 16.0934 N/A
2:08 pm 14:08 Partly Cloudy with Nearby Thunderstorms 82 27.8 62 16.7 51 51 E 20 31 29.74 1007 10 16.0934 N/A
2:51 pm 14:51 Mostly Sunny 86 30 62 16.7 45 45 ENE 10 17 29.8 1009 10 16.0934 N/A
3:51 pm 15:51 Sunny 86 30 61 16.1 43 43 ENE 17 28 29.76 1008 10 16.0934 N/A
4:46 pm 16:46 Sunny with Nearby Thunderstorms 84 29 61 16 45 45 ENE 17 28 29.71 1006 10 16.0934 N/A
4:51 pm 16:51 Partly Cloudy with Nearby Thunderstorms 83 28.3 61 16.1 48 48 E 15 24 29.76 1008 10 16.0934 N/A
5:15 pm 17:15 Mostly Cloudy with Light Thunderstorms 82 27.8 61 16.1 49 49 NE 10 17 29.74 1007 10 16.0934 N/A
5:39 pm 17:39 Partly Cloudy 82 27.8 61 16.1 49 49 E 16 26 29.71 1006 10 16.0934 N/A
5:51 pm 17:51 Mostly Sunny 85 29.4 61 16.1 45 45 NE 9 15 29.75 1008 10 16.0934 N/A
6:51 pm 18:51 Sunny 80 26.7 61 16.1 52 52 ESE 13 20 29.78 1008 10 16.0934 N/A
7:51 pm 19:51 Mostly Cloudy with Nearby Thunderstorms 79 26.1 61 16.1 54 54 ENE 13 20 29.81 1010 10 16.0934 N/A
8:10 pm 20:10 Cloudy with Light Thunderstorms 78 25.6 62 16.7 58 58 SSE 9 15 29.77 1008 10 16.0934 N/A
8:42 pm 20:42 Cloudy with Light Rain 71 21.7 66 18.9 84 84 ENE 10 17 29.83 1010 8 12.87472 0.13 3.302
8:51 pm 20:51 Cloudy with Nearby Thunderstorms 72 22.2 66 18.9 82 82 E 14 22 29.85 1011 10 16.0934 0.13 3.302
9:07 pm 21:07 Mostly Cloudy 73 22.8 66 18.9 79 79 ENE 9 15 29.83 1010 10 16.0934 N/A
9:51 pm 21:51 Mostly Cloudy with Light Rain 73 22.8 65 18.3 76 76 E 10 17 29.87 1012 10 16.0934 N/A
10:51 pm 22:51 Partly Cloudy 73 22.8 65 18.3 76 76 E 10 17 29.91 1013 10 16.0934 N/A
11:51 pm 23:51 Clear 72 22.2 61 16.1 68 68 ESE 9 15 29.89 1012 10 16.0934 N/A

Powered by AerisWeather